Regional Weather Roundup
Issued by NWS

Home | Current Version | Previous Version | Graphics & Text | Print | Product List | Glossary On
Versions: 1 2 3 4 5 6 7 8 9 10 11 12 13 14 15 16 17 18 19 20 21 22 23 24 25 26 27 28 29 30 31 32 33 34 35 36 37 38 39 40 41 42 43 44 45 46 47 48 49 50
000
ASUS43 KIND 260809
RWRIN

WEATHER ROUNDUP FOR INDIANA
NATIONAL WEATHER SERVICE INDIANAPOLIS IN
400 AM EDT WED JUL 26 2017

NOTE: "FAIR" INDICATES FEW OR NO CLOUDS BELOW 12,000 FEET WITH NO
SIGNIFICANT WEATHER AND/OR OBSTRUCTIONS TO VISIBILITY.

* - STATION DOES NOT REPORT WEATHER SUCH AS PRECIPITATION OR FOG.

+ - STATION NOT QUALITY CONTROLLED BY THE NATIONAL WEATHER SERVICE.
    USE DATA WITH CAUTION...ESPECIALLY DEWPOINT AND RELATIVE
    HUMIDITY OBSERVATIONS.

INZ001>003-010>013-019-020-260900-
NORTHWEST INDIANA

CITY           SKY/WX    TMP DP  RH WIND       PRES   REMARKS
GARY /AIRPORT/ PTCLDY    68  60  74 S5        30.14F
KNOX *+        PTCLDY    61  59  94 SE3       30.16R
LA PORTE +     PTCLDY    62  59  90 CALM      30.17S
MICHIGAN CITY+ CLOUDY    66  59  77 S7        30.15F
MONTICELLO +   CLEAR     64  61  90 CALM      30.15S
RENSSELAER +   CLOUDY    63  59  88 NE3       30.15S
VALPARAISO     PTCLDY    65  60  84 SE5       30.16S

$$

LMZ046-743>745-260900-
SOUTHERN LAKE MICHIGAN

STATION/POSITION TIME  TEMP    WIND        PRES    WAVE
                       AIR SEA DIR/SP/G            HT
                 (UTC) (F)     (DEG/KT/KT) (MB)    (FT)
BURNS HARBOR     0740   70     170/  7/ 12 1021.3R
MICHIGAN CITY    0740   69     150/  8/ 10   N/A
5NW MICH CITY    0750   70 74  170/ 12/ 16   N/A     1

$$

INZ004-005-014>016-021>024-260900-
NORTH CENTRAL INDIANA

CITY           SKY/WX    TMP DP  RH WIND       PRES   REMARKS
GOSHEN         PTCLDY    61  56  83 SE6       30.17S
LOGANSPORT +   CLEAR     59  59 100 CALM      30.17R
PERU/GRISSOM   CLEAR     62  61  96 CALM      30.15R
ROCHESTER +    CLEAR     63  59  88 E3        30.17S
SOUTH BEND     PTCLDY    65  59  81 S5        30.17R
WARSAW +       PTCLDY    59  59 100 CALM      30.17S

$$

INZ006>009-017-018-025>027-260900-
NORTHEAST INDIANA

CITY           SKY/WX    TMP DP  RH WIND       PRES   REMARKS
AUBURN +       CLEAR     59  55  88 CALM      30.20S
FORT WAYNE     PTCLDY    61  58  90 E3        30.18R
HUNTINGTON +   CLEAR     61  59  96 CALM      30.18R
KENDALLVILLE + CLEAR     59  58  96 CALM      30.20R

$$

INZ028-029-035-036-043>045-051>053-260900-
WEST CENTRAL INDIANA

CITY           SKY/WX    TMP DP  RH WIND       PRES   REMARKS
GREENCASTLE +  CLEAR     61  59  94 CALM      30.16R
LAFAYETTE      CLEAR     63  60  90 CALM      30.14S
TERRE HAUTE    CLEAR     64  60  87 E3        30.14R

$$

INZ030>032-037>040-046>048-054>057-064-065-260900-
CENTRAL INDIANA

CITY           SKY/WX    TMP DP  RH WIND       PRES   REMARKS
CP ATTERBURY + CLEAR     59  57  94 CALM      30.16R
FRANKFORT +    CLEAR     62  61  96 SE5       30.17R
GREENWOOD *+   CLEAR    N/A N/A N/A CALM      30.17R
INDIANAPOLIS   CLEAR     66  61  84 SE9       30.15R
-EAGLE CREEK   CLEAR     67  60  78 S5        30.15R
KOKOMO +       CLEAR     62  59  90 CALM      30.18R
MARION +       PTCLDY    61  57  88 S3        30.18S
MT COMFORT *+  PTCLDY    63  61  94 SE5       30.16S
SHELBYVILLE    CLEAR     63  59  87 SE6       30.15S
ZIONSVILLE +   CLEAR     60  58  94 CALM      30.17R

$$

INZ033-034-041-042-049-050-058-059-260900-
EAST CENTRAL INDIANA

CITY           SKY/WX    TMP DP  RH WIND       PRES   REMARKS
MUNCIE         CLEAR     64  59  83 SE3       30.17R
RICHMOND +     CLEAR     55  55 100 SE5       30.18S

$$

INZ060-061-067>069-081>083-085>088-260900-
SOUTHWEST INDIANA

CITY           SKY/WX    TMP DP  RH WIND       PRES   REMARKS
EVANSVILLE     CLEAR     72  67  84 NE6       30.10S
HUNTINGBURG *+ MOCLDY    71  65  81 E3        30.12R

$$

INZ062-063-066-070>080-084-089>092-260900-
SOUTH CENTRAL AND SOUTHEAST INDIANA

CITY           SKY/WX    TMP DP  RH WIND       PRES   REMARKS
BEDFORD +      CLEAR     64  59  82 CALM      30.14R
BLOOMINGTON    CLEAR     65  60  84 CALM      30.15R
MADISON *+     CLEAR     64  61  88 E6        30.15F
NORTH VERNON + CLEAR     63  59  88 E6        30.15F
SEYMOUR +      CLEAR     64  63  94 CALM      30.14S

$$




USA.gov is the U.S. government's official web portal to all federal, state and local government web resources and services.